Gadsden, AL

5:37 PM CDT on July 15, 2019 (GMT -0500)
Gadsden Municipal

Weather History for KGAD - May, 2019

Change the Weather History Date:

Friday, May 17, 2019

  Actual Average Record
Temperature  
Mean Temperature 70 °F -  
Max Temperature 86 °F 78 °F 91 °F (1944)
Min Temperature 57 °F 54 °F 39 °F (1997)
Cooling Degree Days 6    
Growing Degree Days 20 (Base 50)    
Moisture  
Dew Point 71 °F    
Average Humidity 86    
Maximum Humidity 100    
Minimum Humidity 65    
Precipitation  
Precipitation 0.04 in - - ()
Sea Level Pressure  
Sea Level Pressure 30.00 in    
Wind  
Wind Speed 1 mph ()    
Max Wind Speed 10 mph    
Max Gust Speed -    
Visibility 8.3 miles    
Events Rain    
Averages and records for this station are not official NWS values.
T = Trace of Precipitation, MM = Missing Value Source: Averaged Metar Reports

Daily Weather History Graph

Daily Weather History Graph

Search for Another Location

Airport or City:

Astronomy

May. 17, 2019 Rise Set
Actual Time 5:41 AM CDT 7:40 PM CDT
Civil Twilight 5:13 AM CDT 8:08 PM CDT
Nautical Twilight 4:40 AM CDT 8:41 PM CDT
Astronomical Twilight 4:04 AM CDT 9:17 PM CDT
Moon 6:33 PM CDT (5/17) 5:05 AM CDT (5/17)
Length of Visible Light 14h 54m
Length of Day
13h 58m
Waxing Gibbous, 98% of the Moon is Illuminated
May 17
Waxing Gibbous
May 18
Full
May 26
Last Quarter
Jun 3
New
Jun 10
First Quarter

Hourly Weather History & Observations

Time (CDT) Temp. Heat Index Dew Point Humidity Pressure Visibility Wind Dir Wind Speed Gust Speed Precip Events Conditions
12:56 AM 64.0 °F - 64.0 °F 100% 29.98 in 10.0 mi Calm Calm - 0.00 in   Clear
1:56 AM 63.0 °F - - N/A% 29.96 in 10.0 mi Calm Calm - N/A   Clear
2:56 AM 61.0 °F - - N/A% 29.96 in 8.0 mi Calm Calm - N/A   Clear
3:56 AM 60.1 °F - - N/A% 30.00 in 8.0 mi Calm Calm - N/A   Clear
4:27 AM 60.8 °F - - N/A% 30.01 in 2.5 mi Calm Calm - N/A   Clear
4:36 AM 60.8 °F - - N/A% 30.01 in 6.0 mi Calm Calm - N/A   Haze
4:56 AM 60.1 °F - - N/A% 30.00 in 8.0 mi Calm Calm - N/A   Clear
5:50 AM 59.0 °F - - N/A% 30.02 in 1.8 mi Calm Calm - N/A   Clear
5:56 AM 57.9 °F - - N/A% 30.02 in 1.5 mi Calm Calm - N/A   Clear
6:05 AM 59.0 °F - - N/A% 30.02 in 7.0 mi Calm Calm - N/A   Clear
6:56 AM 63.0 °F - - N/A% 30.03 in 8.0 mi Calm Calm - N/A   Clear
7:56 AM 69.1 °F - 69.1 °F 100% 30.03 in 10.0 mi Calm Calm - N/A   Clear
8:56 AM 73.9 °F - 71.1 °F 91% 30.05 in 10.0 mi SW 4.6 mph - N/A   Clear
10:56 AM 82.0 °F 86.7 °F 72.0 °F 71% 30.04 in 10.0 mi Variable 4.6 mph - N/A   Clear
12:56 PM 82.9 °F 87.0 °F 70.0 °F 65% 30.02 in 10.0 mi South 3.5 mph - N/A   Overcast
1:56 PM 75.9 °F - 71.1 °F 85% 30.02 in 10.0 mi SSE 10.4 mph - 0.02 in Rain Light Rain
2:56 PM 79.0 °F - 75.9 °F 90% 30.01 in 10.0 mi ESE 3.5 mph - 0.02 in   Scattered Clouds
3:56 PM 81.0 °F 86.7 °F 75.0 °F 82% 29.99 in 10.0 mi Calm Calm - N/A   Clear
4:56 PM 84.0 °F 89.0 °F 71.1 °F 65% 29.97 in 10.0 mi Calm Calm - N/A   Clear
5:56 PM 81.0 °F 84.9 °F 71.1 °F 72% 29.98 in 10.0 mi SSE 4.6 mph - N/A   Clear
6:56 PM 80.1 °F 84.2 °F 73.0 °F 79% 29.98 in 10.0 mi Calm Calm - N/A   Clear
7:56 PM 73.0 °F - 73.0 °F 100% 29.99 in 9.0 mi Calm Calm - N/A   Clear
8:56 PM 71.1 °F - 71.1 °F 100% 29.99 in 10.0 mi ESE 4.6 mph - N/A   Clear
9:56 PM 69.1 °F - 69.1 °F 100% 30.01 in 10.0 mi Calm Calm - N/A   Partly Cloudy
10:56 PM 66.9 °F - - N/A% 30.01 in 9.0 mi Calm Calm - N/A   Mostly Cloudy
11:56 PM 66.0 °F - - N/A% 30.01 in 6.0 mi Calm Calm - N/A   Haze